Weather History for Sioux City, IA

Change the Weather History Date:

Tuesday, April 2, 2013

  Actual Average Record
Temperature  
Mean Temperature 35 °F 44 °F  
Max Temperature 50 °F 56 °F 92 °F (2012)
Min Temperature 20 °F 31 °F 9 °F (1975)
Degree Days  
Heating Degree Days 30 21  
Month to date heating degree days 67 43  
Since 1 July heating degree days 6263 6221  
Cooling Degree Days 0 0  
Month to date cooling degree days 0 0  
Year to date cooling degree days 0 0  
Moisture  
Dew Point 22 °F    
Average Humidity 65    
Maximum Humidity 91    
Minimum Humidity 38    
Precipitation  
Precipitation 0.00 in 0.09 in 0.96 in (1988)
Month to date precipitation 0.00 0.17  
Year to date precipitation 3.20 3.46  
Snow  
Snow 0.00 in 0.10 in 1.20 in (1937)
Month to date snowfall 0.0 0.2  
Since 1 July snowfall 32.5 33.2  
Snow Depth 0.00 in    
Sea Level Pressure  
Sea Level Pressure 30.32 in    
Wind  
Wind Speed 4 mph (East)    
Max Wind Speed 10 mph    
Max Gust Speed 14 mph    
Visibility 10 miles    
Events      
T = Trace of Precipitation, MM = Missing Value Source: NWS Daily Summary

Daily Weather History Graph

Daily Weather History Graph

Search for Another Location

Airport:

Trip Planner

Search our weather history database for the weather conditions in past years. The results will help you decide how hot, cold, wet, or windy it might be!

Date:

Astronomy

Apr. 02, 2013 Rise Set
Actual Time 7:05 AM CDT 7:52 PM CDT
Civil Twilight 6:37 AM CDT 8:21 PM CDT
Nautical Twilight 6:03 AM CDT 8:55 PM CDT
Astronomical Twilight 5:28 AM CDT 9:30 PM CDT
Moon 2:03 AM CDT (4/2) 11:53 AM CDT (4/2)
Length of Visible Light 13h 43m
Length of Day
12h 47m
Waning Gibbous, 55% of the Moon is Illuminated
Apr 2
Waning Gibbous
Apr 2
Last Quarter
Apr 10
New
Apr 18
First Quarter
Apr 25
Full

Hourly Weather History & Observations

Time (CDT) Temp. Windchill Dew Point Humidity Pressure Visibility Wind Dir Wind Speed Gust Speed Precip Events Conditions
12:52 AM 25.0 °F - 19.9 °F 81% 30.33 in 10.0 mi Calm Calm - N/A   Clear
1:52 AM 25.0 °F - 19.9 °F 81% 30.33 in 10.0 mi Calm Calm - N/A   Clear
2:52 AM 21.9 °F - 18.0 °F 85% 30.33 in 10.0 mi Calm Calm - N/A   Clear
3:52 AM 21.0 °F 14.6 °F 18.0 °F 88% 30.32 in 10.0 mi NW 4.6 mph - N/A   Clear
4:52 AM 19.9 °F - 17.1 °F 89% 30.33 in 10.0 mi Calm Calm - N/A   Clear
5:52 AM 19.9 °F - 16.0 °F 85% 30.35 in 10.0 mi Calm Calm - N/A   Clear
6:52 AM 21.0 °F - 17.1 °F 85% 30.35 in 10.0 mi Calm Calm - N/A   Clear
7:52 AM 21.9 °F - 18.0 °F 85% 30.36 in 10.0 mi Calm Calm - N/A   Clear
8:52 AM 27.0 °F - 21.9 °F 81% 30.37 in 10.0 mi Calm Calm - N/A   Clear
9:52 AM 33.1 °F 30.0 °F 21.9 °F 64% 30.36 in 10.0 mi Variable 3.5 mph - N/A   Scattered Clouds
10:52 AM 37.9 °F - 21.0 °F 51% 30.36 in 10.0 mi Calm Calm - N/A   Overcast
11:52 AM 41.0 °F - 21.0 °F 45% 30.35 in 10.0 mi Calm Calm - N/A   Overcast
12:52 PM 44.1 °F 42.5 °F 23.0 °F 43% 30.34 in 10.0 mi Variable 3.5 mph - N/A   Mostly Cloudy
1:52 PM 46.0 °F 43.1 °F 24.1 °F 42% 30.32 in 10.0 mi Variable 5.8 mph - N/A   Overcast
2:52 PM 46.0 °F 43.9 °F 23.0 °F 40% 30.31 in 10.0 mi Variable 4.6 mph - N/A   Overcast
3:52 PM 46.0 °F 43.9 °F 23.0 °F 40% 30.30 in 10.0 mi East 4.6 mph - N/A   Overcast
4:52 PM 48.0 °F - 24.1 °F 39% 30.29 in 10.0 mi Variable 3.5 mph - N/A   Overcast
5:52 PM 48.0 °F - 24.1 °F 39% 30.28 in 10.0 mi SE 4.6 mph - N/A   Mostly Cloudy
6:52 PM 46.9 °F - 24.1 °F 41% 30.28 in 10.0 mi ESE 8.1 mph - N/A   Partly Cloudy
7:52 PM 44.1 °F 39.5 °F 24.1 °F 45% 30.28 in 10.0 mi East 8.1 mph - N/A   Mostly Cloudy
8:52 PM 39.0 °F 33.4 °F 25.0 °F 57% 30.29 in 10.0 mi East 8.1 mph - N/A   Clear
9:52 PM 36.0 °F 30.3 °F 25.0 °F 64% 30.31 in 10.0 mi East 6.9 mph - N/A   Clear
10:52 PM 35.1 °F 27.9 °F 25.0 °F 67% 30.32 in 10.0 mi East 9.2 mph - N/A   Clear
11:52 PM 30.9 °F 25.2 °F 24.1 °F 76% 30.33 in 10.0 mi East 5.8 mph - N/A   Clear